Weather History for Boothville, LA

Change the Weather History Date:

Friday, October 12, 2012

  Actual Average Record
Temperature  
Mean Temperature 76 °F -  
Max Temperature 82 °F - - ()
Min Temperature 72 °F - - ()
Cooling Degree Days 12    
Growing Degree Days 26 (Base 50)    
Moisture  
Dew Point 69 °F    
Average Humidity 79    
Maximum Humidity 90    
Minimum Humidity 67    
Precipitation  
Precipitation 0.00 in - - ()
Sea Level Pressure  
Sea Level Pressure 30.20 in    
Wind  
Wind Speed 6 mph (ENE)    
Max Wind Speed 13 mph    
Max Gust Speed -    
Visibility 9 miles    
Events      
T = Trace of Precipitation, MM = Missing Value Source: NWS Daily Summary

Daily Weather History Graph

Daily Weather History Graph

Search for Another Location

Airport:

Trip Planner

Search our weather history database for the weather conditions in past years. The results will help you decide how hot, cold, wet, or windy it might be!

Date:

Astronomy

Oct. 12, 2012 Rise Set
Actual Time 6:57 AM CDT 6:30 PM CDT
Civil Twilight 6:33 AM CDT 6:53 PM CDT
Nautical Twilight 6:05 AM CDT 7:21 PM CDT
Astronomical Twilight 5:38 AM CDT 7:48 PM CDT
Moon 3:53 AM CDT (10/12) 4:29 PM CDT (10/12)
Length of Visible Light 12h 20m
Length of Day
11h 32m
Waning Crescent, 10% of the Moon is Illuminated
Oct 12
Waning Crescent
Oct 15
New
Oct 21
First Quarter
Oct 29
Full
Nov 6
Last Quarter

Hourly Weather History & Observations

Time (CDT) Temp. Heat Index Dew Point Humidity Pressure Visibility Wind Dir Wind Speed Gust Speed Precip Events Conditions
12:51 AM 72.0 °F - 68.0 °F 87% 30.19 in 9.0 mi ENE 3.5 mph - N/A   Clear
1:51 AM 73.0 °F - 68.0 °F 84% 30.18 in 9.0 mi ENE 3.5 mph - N/A   Clear
2:51 AM 73.0 °F - 68.0 °F 84% 30.17 in 9.0 mi ENE 4.6 mph - N/A   Clear
3:51 AM 73.0 °F - 68.0 °F 84% 30.17 in 9.0 mi ENE 4.6 mph - N/A   Clear
4:51 AM 73.9 °F - 68.0 °F 82% 30.16 in 9.0 mi NE 5.8 mph - N/A   Clear
5:51 AM 73.9 °F - 68.0 °F 82% 30.17 in 9.0 mi ENE 4.6 mph - N/A   Clear
6:51 AM 73.9 °F - 69.1 °F 85% 30.19 in 9.0 mi ENE 6.9 mph - N/A   Clear
7:51 AM 75.0 °F - 71.1 °F 87% 30.20 in 7.0 mi ENE 5.8 mph - N/A   Scattered Clouds
8:51 AM 77.0 °F - 71.1 °F 82% 30.23 in 8.0 mi ENE 6.9 mph - N/A   Scattered Clouds
9:51 AM 80.1 °F 82.9 °F 69.1 °F 69% 30.25 in 10.0 mi ENE 8.1 mph - N/A   Clear
10:51 AM 80.1 °F 82.9 °F 69.1 °F 69% 30.25 in 10.0 mi East 10.4 mph - N/A   Mostly Cloudy
11:51 AM 81.0 °F 84.1 °F 69.1 °F 67% 30.26 in 10.0 mi ENE 9.2 mph - N/A   Clear
12:51 PM 81.0 °F 84.9 °F 71.1 °F 72% 30.24 in 9.0 mi NE 10.4 mph - N/A   Clear
1:51 PM 81.0 °F 85.2 °F 72.0 °F 74% 30.22 in 8.0 mi NNE 6.9 mph - N/A   Clear
2:51 PM 80.1 °F 82.9 °F 69.1 °F 69% 30.20 in 10.0 mi East 9.2 mph - N/A   Mostly Cloudy
3:51 PM 81.0 °F 84.1 °F 69.1 °F 67% 30.19 in 10.0 mi ENE 10.4 mph - N/A   Partly Cloudy
4:51 PM 79.0 °F - 70.0 °F 74% 30.19 in 9.0 mi East 11.5 mph - N/A   Partly Cloudy
5:51 PM 78.1 °F - 69.1 °F 74% 30.20 in 9.0 mi East 12.7 mph - N/A   Clear
6:51 PM 75.9 °F - 69.1 °F 79% 30.20 in 10.0 mi East 8.1 mph - N/A   Clear
7:51 PM 75.9 °F - 69.1 °F 79% 30.21 in 9.0 mi East 10.4 mph - N/A   Clear
8:51 PM 75.0 °F - 69.1 °F 82% 30.21 in 9.0 mi East 6.9 mph - N/A   Clear
9:51 PM 73.9 °F - 69.1 °F 85% 30.21 in 9.0 mi East 4.6 mph - N/A   Clear
10:51 PM 73.0 °F - 70.0 °F 90% 30.21 in 8.0 mi East 4.6 mph - N/A   Clear
11:51 PM 73.0 °F - 70.0 °F 90% 30.19 in 8.0 mi ESE 4.6 mph - N/A   Clear